Campo, CA

4:37 AM PDT on May 30, 2017 (GMT -0700)
Campo

Weather History for KCZZ - December, 2014

Change the Weather History Date:

Tuesday, December 23, 2014

  Actual Average Record
Temperature  
Mean Temperature 55 °F 47 °F  
Max Temperature 67 °F 62 °F 76 °F (2005)
Min Temperature 42 °F 33 °F 20 °F (1979)
Degree Days  
Heating Degree Days 10 18  
Month to date heating degree days 306 400  
Since 1 July heating degree days 687 970  
Cooling Degree Days 0 0  
Month to date cooling degree days 0 0  
Year to date cooling degree days 900 841  
Growing Degree Days 5 (Base 50)    
Moisture  
Dew Point 31 °F    
Average Humidity 50    
Maximum Humidity 71    
Minimum Humidity 29    
Precipitation  
Precipitation 0.00 in 0.08 in 1.07 in (1948)
Month to date precipitation 3.07 1.58  
Year to date precipitation 8.12 15.04  
Since 1 July precipitation 5.36  
Snow  
Snow 0.00 in - - ()
Month to date snowfall 0.0  
Year to date snowfall 0.0  
Snow Depth 0.00 in    
Sea Level Pressure  
Sea Level Pressure 30.03 in    
Wind  
Wind Speed 16 mph (NE)    
Max Wind Speed 32 mph    
Max Gust Speed 41 mph    
T = Trace of Precipitation, MM = Missing Value Source: NWS Daily Summary

Daily Weather History Graph

Daily Weather History Graph

Search for Another Location

Airport or City:

Trip Planner

Search our weather history database for the weather conditions in past years. The results will help you decide how hot, cold, wet, or windy it might be!

Date:

Astronomy

Dec. 23, 2014 Rise Set
Actual Time 6:44 AM PST 4:45 PM PST
Civil Twilight 6:17 AM PST 5:12 PM PST
Nautical Twilight 5:46 AM PST 5:43 PM PST
Astronomical Twilight 5:16 AM PST 6:13 PM PST
Moon 7:59 AM PST (12/23) 6:58 PM PST (12/23)
Length of Visible Light 10h 54m
Length of Day
10h 00m
Waxing Crescent, 4% of the Moon is Illuminated
Dec 23
Waxing Crescent
Dec 28
First Quarter
Jan 4
Full
Jan 13
Last Quarter
Jan 20
New

Hourly Weather History & Observations

Time (PST) Temp. Windchill Dew Point Humidity Pressure Visibility Wind Dir Wind Speed Gust Speed Precip Events Conditions
12:52 AM 46.0 °F 43.1 °F 35.1 °F 66% 29.97 in - North 5.8 mph - N/A   Unknown
1:52 AM 46.0 °F 44.8 °F 35.1 °F 66% 29.97 in - Variable 3.5 mph - N/A   Unknown
2:52 AM 44.1 °F 42.5 °F 34.0 °F 68% 29.98 in - Variable 3.5 mph - N/A   Unknown
3:52 AM 53.1 °F - 34.0 °F 48% 29.95 in - ESE 3.5 mph - N/A   Unknown
4:52 AM 57.0 °F - 33.1 °F 40% 29.95 in - NE 13.8 mph 21.9 mph N/A   Unknown
5:52 AM 63.0 °F - 30.9 °F 30% 29.98 in - NE 20.7 mph 26.5 mph N/A   Unknown
6:52 AM 62.1 °F - 30.9 °F 31% 29.99 in - ENE 15.0 mph 20.7 mph N/A   Unknown
7:52 AM 64.0 °F - 32.0 °F 30% 30.01 in - ENE 23.0 mph 29.9 mph N/A   Unknown
8:52 AM 64.9 °F - 34.0 °F 32% 30.05 in - NE 18.4 mph 29.9 mph N/A   Unknown
9:52 AM 66.0 °F - 34.0 °F 30% 30.06 in - ENE 20.7 mph 31.1 mph N/A   Unknown
10:52 AM 66.0 °F - 35.1 °F 32% 30.05 in - NE 25.3 mph 35.7 mph N/A   Unknown
11:52 AM 64.9 °F - 35.1 °F 33% 30.05 in - NE 21.9 mph 34.5 mph N/A   Unknown
12:52 PM 64.0 °F - 36.0 °F 35% 30.04 in - NE 20.7 mph 32.2 mph N/A   Unknown
1:52 PM 63.0 °F - 33.1 °F 33% 30.04 in - ENE 27.6 mph 35.7 mph N/A   Unknown
2:52 PM 63.0 °F - 33.1 °F 33% 30.05 in - ENE 20.7 mph 28.8 mph N/A   Unknown
3:52 PM 62.1 °F - 32.0 °F 32% 30.03 in - NE 16.1 mph 23.0 mph N/A   Unknown
4:52 PM 59.0 °F - 30.0 °F 33% 30.04 in - ENE 13.8 mph - N/A   Unknown
5:52 PM 57.0 °F - 26.1 °F 30% 30.06 in - NNE 9.2 mph - N/A   Unknown
6:52 PM 55.9 °F - 25.0 °F 30% 30.07 in - NE 12.7 mph - N/A   Unknown
7:52 PM 55.9 °F - 24.1 °F 29% 30.06 in - NE 15.0 mph - N/A   Unknown
8:52 PM 57.0 °F - 23.0 °F 27% 30.07 in - NE 15.0 mph 28.8 mph N/A   Unknown
9:52 PM 57.0 °F - 23.0 °F 27% 30.07 in - ENE 17.3 mph 35.7 mph N/A   Unknown
10:52 PM 54.0 °F - 21.9 °F 29% 30.07 in - East 16.1 mph - N/A   Unknown
11:52 PM 54.0 °F - 23.0 °F 30% 30.05 in - ENE 12.7 mph - N/A   Unknown